FENGYUN 1C DEB, 31768

Orbit data source: Space-Track

FENGYUN 1C DEB, 31768 is space debris in SSO originally from a launch on Mon, 10 May 1999 UTC launched from the Taiyaun Space Center, China (TSC). Fengyun 1C debris stems from the Chinese weather satellite Fengyun-1C, which was intentionally destroyed by a Chinese anti-satellite missile in 2007. This event dramatically increased the amount of space debris, with thousands of trackable fragments posing hazards to satellites and human spaceflight. The Fengyun 1C debris cloud has become a focal point in discussions about space sustainability and the need for international regulations to prevent the creation of new debris.

Loading next visibility...
Identifier
31768, 1999-025CFT
Orbit
SSO
Country
Flag of CNCN / PRC
Related business
Manufacturer
Unknown
Mission
Spacecraft
Bus & Motor
Unknown
Mass
Unknown
Launch date (UTC)
1999-05-10 (27 years ago)
Launch vehicle
Unknown
Launch site
Taiyaun Space Center, China (TSC)
Object type
Payload
Rocket body
Debris
Shape & HBR
Unknown shape, 0.1 m
Radar Cross Section
Small (<0.1 m²)

Expand to show TLE details & history
Last TLE update: 17 hours ago

TLE from 17 hours ago
0 FENGYUN 1C DEB
1 31768U 99025CFT 26107.00507078  .00008428  00000-0  10754-2 0  9994
2 31768  99.0307 200.2117 0022488 305.7108 230.0134 14.81593371987241
Epoch: 2026-04-17T00:07Z
TLE epoch observation values (Epoch: 2026-04-17T00:07:18.115Z)
Latitude
4.32549°
Longitude
173.9268°
Altitude
636.971 km
Speed
7.535 km/s
True Right ascension
01h 23m 35s
True Declination
4° 17' 57"
Sunlit
Object was in daylight at epoch
Visualization orbit readout
Latitude
Unknown
Longitude
Unknown
Altitude
Unknown
Speed
Unknown
Apparent Right ascension
Unknown
Apparent Declination
Unknown
Sunlit
N/A
Visualization observer readout
Local Sidereal Time
23:30:26
Azimuth
Unknown
Elevation
Unknown
Doppler factor
Unknown
Orbital elements
Apogee altitude
637.133 km
Perigee altitude
605.651 km
Semi-major axis
6,999.529 km
Eccentricity
0.00225
Inclination
99.0307°
RAAN
200.2117°
Arg. of periapsis
305.7108°
True anomaly
229.81631°
Mean anomaly
230.0134°
Eccentric anomaly
229.91482°
Mean motion
3.70629 °/min
Orbital period
97.13 mins
BSTAR
0.0010754
Loading maneuver chart data...
Computing Atmospheric mass density...

Documentation

Showing up to 5 results
|